Location: Newark
(52.4787°S, 179.0532°W)
Time: 03:54:02
(UTC+00:00)

Transit 2A Rocket - Pass Details

Date: 23 November 2019
Orbit: 594 x 909 km, 66.7° (Epoch: 07 December)

Event Time Altitude Azimuth Distance (km) Brightness Sun altitude
Rises 05:54:48 0° 223° (SW) 3,573 9.5 14.1°
Reaches altitude 10° 05:57:34 10° 231° (SW) 2,618 9.3 13.7°
Maximum altitude 06:02:58 34° 293° (WNW) 1,443 7.3 12.9°
Drops below altitude 10° 06:08:08 10° 355° (N) 2,488 7.6 12.2°
Sets 06:10:43 0° 4° (N) 3,372 8.1 11.8°
